Akron, OH

5:56 PM EST on January 17, 2018 (GMT -0500)
Akron Fulton International

Weather History for KAKR - March, 2013

Change the Weather History Date:

Monday, March 18, 2013

  Actual Average (KCAK) Record (KCAK)
Temperature  
Mean Temperature 36 °F -  
Max Temperature 46 °F 45 °F 75 °F (2012)
Min Temperature 27 °F 26 °F 3 °F (1916)
Degree Days  
Heating Degree Days 28    
Moisture  
Dew Point 33 °F    
Average Humidity 87    
Maximum Humidity 100    
Minimum Humidity 64    
Precipitation  
Precipitation 0.51 in - - ()
Sea Level Pressure  
Sea Level Pressure 29.78 in    
Wind  
Wind Speed 7 mph (SSE)    
Max Wind Speed 28 mph    
Max Gust Speed 34 mph    
Visibility 5 miles    
Events Rain    
Averages and records for this station are not official NWS values.
T = Trace of Precipitation, MM = Missing Value Source: NWS Daily Summary

Daily Weather History Graph

Daily Weather History Graph

Search for Another Location

Airport or City:

Trip Planner

Search our weather history database for the weather conditions in past years. The results will help you decide how hot, cold, wet, or windy it might be!

Date:

Astronomy

Mar. 18, 2013 Rise Set
Actual Time 7:32 AM EDT 7:36 PM EDT
Civil Twilight 7:04 AM EDT 8:03 PM EDT
Nautical Twilight 6:32 AM EDT 8:35 PM EDT
Astronomical Twilight 6:00 AM EDT 9:08 PM EDT
Moon 11:27 AM EDT (3/18) 1:37 AM EDT (3/18)
Length of Visible Light 12h 58m
Length of Day
12h 03m
Waxing Crescent, 40% of the Moon is Illuminated
Mar 18
Waxing Crescent
Mar 19
First Quarter
Mar 27
Full
Apr 3
Last Quarter
Apr 10
New

Hourly Weather History & Observations

Time (EDT) Temp. Windchill Dew Point Humidity Pressure Visibility Wind Dir Wind Speed Gust Speed Precip Events Conditions
12:54 AM 27.0 °F 20.5 °F 18.0 °F 69% 30.15 in 10.0 mi East 5.8 mph - N/A   Clear
1:54 AM 28.0 °F 21.7 °F 18.0 °F 66% 30.12 in 10.0 mi Variable 5.8 mph - N/A   Clear
2:54 AM 28.0 °F 22.8 °F 18.0 °F 66% 30.10 in 10.0 mi Variable 4.6 mph - N/A   Clear
3:54 AM 28.9 °F 21.9 °F 19.0 °F 67% 30.08 in 10.0 mi East 6.9 mph - N/A   Clear
4:54 AM 30.0 °F 23.2 °F 19.9 °F 66% 30.02 in 10.0 mi Variable 6.9 mph - N/A   Mostly Cloudy
5:34 AM 30.2 °F 22.6 °F 21.2 °F 69% 29.97 in 10.0 mi ESE 8.1 mph - N/A   Overcast
5:54 AM 30.9 °F 25.2 °F 21.9 °F 69% 30.00 in 10.0 mi Variable 5.8 mph - N/A   Overcast
6:12 AM 32.0 °F 27.5 °F 21.2 °F 64% 29.96 in 10.0 mi Variable 4.6 mph - N/A   Overcast
6:46 AM 32.0 °F 26.4 °F 24.8 °F 75% 29.94 in 7.0 mi Variable 5.8 mph - 0.00 in Rain Light Freezing Rain
6:54 AM 32.0 °F 26.4 °F 25.0 °F 75% 29.97 in 7.0 mi Variable 5.8 mph - 0.00 in Rain Light Freezing Rain
7:54 AM 32.0 °F 25.6 °F 28.0 °F 85% 29.93 in 5.0 mi Variable 6.9 mph - 0.04 in Rain Light Freezing Rain
8:16 AM 33.8 °F 27.7 °F 28.4 °F 81% 29.89 in 5.0 mi Variable 6.9 mph 17.3 mph 0.03 in Rain Light Freezing Rain
8:51 AM 33.8 °F 26.4 °F 30.2 °F 87% 29.86 in 6.0 mi ESE 9.2 mph - 0.05 in Rain Light Rain
8:54 AM 33.1 °F 27.7 °F 30.9 °F 92% 29.90 in 6.0 mi ESE 5.8 mph - 0.06 in Rain Light Rain
9:02 AM 33.8 °F 27.0 °F 30.2 °F 87% 29.86 in 6.0 mi SE 8.1 mph 21.9 mph 0.01 in Rain Light Rain
9:40 AM 33.8 °F 27.7 °F 30.2 °F 87% 29.84 in 2.5 mi Variable 6.9 mph - 0.08 in Rain Rain
9:54 AM 34.0 °F 29.8 °F 30.9 °F 89% 29.88 in 2.0 mi Variable 4.6 mph - 0.12 in Rain Rain
10:25 AM 33.8 °F 27.0 °F 32.0 °F 93% 29.81 in 4.0 mi ESE 8.1 mph - 0.09 in Rain Light Rain
10:54 AM 34.0 °F 28.8 °F 30.9 °F 89% 29.85 in 4.0 mi Variable 5.8 mph 19.6 mph 0.14 in Rain Light Rain
11:54 AM 34.0 °F 28.8 °F 30.9 °F 89% 29.84 in 5.0 mi Variable 5.8 mph - 0.03 in Rain Light Rain
12:09 PM 33.8 °F 27.7 °F 30.2 °F 87% 29.79 in 1.8 mi Variable 6.9 mph - 0.01 in Rain Light Rain
12:27 PM 33.8 °F 25.8 °F 30.2 °F 87% 29.78 in 2.0 mi SE 10.4 mph 18.4 mph 0.01 in   Overcast
12:49 PM 33.8 °F 27.7 °F 30.2 °F 87% 29.77 in 3.0 mi SE 6.9 mph 19.6 mph 0.01 in   Overcast
12:54 PM 34.0 °F 28.0 °F 32.0 °F 92% 29.81 in 4.0 mi SE 6.9 mph 19.6 mph 0.01 in   Overcast
1:54 PM 35.1 °F 28.6 °F 32.0 °F 89% 29.77 in 8.0 mi SE 8.1 mph - N/A   Overcast
2:54 PM 35.1 °F 27.4 °F 33.1 °F 92% 29.72 in 3.0 mi SE 10.4 mph - 0.00 in   Overcast
3:13 PM 35.6 °F 30.7 °F 33.8 °F 93% 29.69 in 1.8 mi Variable 5.8 mph 16.1 mph N/A   Overcast
3:29 PM 35.6 °F 30.7 °F 33.8 °F 93% 29.67 in 3.0 mi Variable 5.8 mph - 0.01 in Rain Light Rain
3:42 PM 35.6 °F 30.7 °F 33.8 °F 93% 29.67 in 2.5 mi SSE 5.8 mph - 0.01 in   Overcast
3:54 PM 36.0 °F 29.6 °F 34.0 °F 93% 29.67 in 3.0 mi SE 8.1 mph - 0.02 in Rain Light Rain
4:54 PM 37.9 °F 31.5 °F 36.0 °F 93% 29.66 in 4.0 mi South 9.2 mph - 0.01 in Rain Light Rain
5:54 PM 39.9 °F 33.9 °F 37.9 °F 93% 29.64 in 2.5 mi SSE 9.2 mph - 0.00 in   Overcast
6:05 PM 39.2 °F 33.6 °F 37.4 °F 93% 29.61 in 1.8 mi South 8.1 mph - 0.00 in Rain Light Rain
6:14 PM 39.2 °F 34.2 °F 39.2 °F 100% 29.61 in 3.0 mi SSE 6.9 mph 16.1 mph 0.00 in Rain Light Rain
6:40 PM 41.0 °F 35.2 °F 39.2 °F 93% 29.60 in 2.0 mi SSE 9.2 mph - 0.00 in   Overcast
6:49 PM 41.0 °F 34.7 °F 39.2 °F 93% 29.60 in 1.5 mi South 10.4 mph 17.3 mph 0.00 in Rain Light Rain
6:54 PM 41.0 °F 35.8 °F 39.9 °F 96% 29.62 in 1.5 mi SSE 8.1 mph - 0.00 in Rain Light Rain
7:16 PM 42.8 °F 38.0 °F 39.2 °F 87% 29.61 in 3.0 mi SSE 8.1 mph - 0.01 in   Overcast
7:31 PM 42.8 °F 38.6 °F 41.0 °F 93% 29.61 in 2.0 mi SSE 6.9 mph - 0.01 in Rain Light Rain
7:54 PM 42.1 °F 39.2 °F 41.0 °F 96% 29.63 in 3.0 mi SSE 4.6 mph - 0.03 in Rain Light Rain
8:06 PM 42.8 °F 38.0 °F 41.0 °F 93% 29.61 in 2.5 mi SSE 8.1 mph - 0.01 in Rain Light Rain
8:17 PM 42.8 °F 38.6 °F 42.8 °F 100% 29.61 in 3.0 mi South 6.9 mph - 0.01 in Rain Light Rain
8:25 PM 44.6 °F 40.7 °F 42.8 °F 93% 29.61 in 2.5 mi South 6.9 mph - 0.01 in Rain Light Rain
8:54 PM 44.1 °F 41.5 °F 43.0 °F 96% 29.64 in 3.0 mi South 4.6 mph - 0.03 in Rain Light Rain
9:54 PM 45.0 °F 41.2 °F 44.1 °F 97% 29.64 in 7.0 mi SSW 6.9 mph - 0.02 in   Overcast
10:22 PM 46.4 °F 42.4 °F 44.6 °F 93% 29.62 in 9.0 mi SW 8.1 mph - N/A   Overcast
10:36 PM 46.4 °F 40.4 °F 44.6 °F 93% 29.63 in 7.0 mi West 13.8 mph 20.7 mph 0.00 in Rain Light Rain
10:54 PM 45.0 °F 37.4 °F 42.1 °F 90% 29.65 in 10.0 mi West 18.4 mph 26.5 mph 0.00 in   Overcast
11:03 PM 44.6 °F 37.2 °F 41.0 °F 87% 29.64 in 10.0 mi West 17.3 mph - N/A   Overcast
11:54 PM 42.1 °F 31.7 °F 37.0 °F 82% 29.70 in 10.0 mi West 27.6 mph 34.5 mph N/A   Overcast